Simultaneous Nadir Overpasses (SNOs) Predictions

Prediction of SNOs between GOES-17 and TERRA Satellite Orbit:

Table of predicted SNOs for the next 14.0 days since TLE Epoch: 2/3/2024
Index Date Time (GOES-17) GOES-17 Lat,Lon TERRA Lat,Lon Distance(km) Time Diff (sec)
1 02/04/2024 04:46:03 -0.01,-104.68 0.31,-103.21 167.58 80
2 02/04/2024 17:06:04 0.01,-104.69 0.74,-108.07 385.03 80
3 02/06/2024 16:51:48 0.01,-104.69 -0.17,-103.99 79.73 80
4 02/07/2024 05:11:59 -0.01,-104.68 -0.87,-108.90 478.59 80
5 02/09/2024 04:52:21 -0.01,-104.68 -0.07,-104.80 14.24 80
6 02/11/2024 04:35:24 -0.02,-104.68 0.82,-100.71 451.20 80
7 02/11/2024 16:55:25 0.02,-104.68 0.22,-105.58 101.64 80
8 02/13/2024 16:41:07 0.02,-104.69 -0.62,-101.48 364.06 80
9 02/14/2024 05:01:17 -0.02,-104.69 -0.39,-106.39 193.61 80
10 02/16/2024 04:41:39 -0.02,-104.69 0.48,-102.30 272.00 80
11 02/16/2024 17:01:41 0.01,-104.69 0.51,-107.17 281.33 80
